,,,PA_Meas_PMT16A,,PR_Meas_QMR101_102,,RH_Meas_QMH101,,SR_Meas_QMS101,,TA_Meas_QMH101,,GenWind,,GenWind,
date,time,status,PA,status,PR,status,RH,status,SR,status,TA,status,DirAvg,status,SpdAvg,
2011-02-05, 00:00:04,VALID,1003.2,VALID,0,INVALID,163.639,VALID,0.100563,VALID,24.7121,VALID,38,VALID,0.694531,
2011-02-05, 00:01:04,VALID,1003.2,VALID,0,INVALID,163.655,VALID,0,VALID,24.714,VALID,38,VALID,0.712891,
2011-02-05, 00:02:04,VALID,1003.2,VALID,0,INVALID,163.655,VALID,0,VALID,24.7548,VALID,38,VALID,0.603125,
2011-02-05, 00:03:04,VALID,1003.17,VALID,0,INVALID,163.662,VALID,0.100563,VALID,24.7529,VALID,53,VALID,0.685547,
2011-02-05, 00:04:04,VALID,1003.16,VALID,0,INVALID,163.647,VALID,0,VALID,24.8327,VALID,32,VALID,0.843359,
2011-02-05, 00:05:04,VALID,1003.14,VALID,0,INVALID,163.647,VALID,0,VALID,24.8697,VALID,27,VALID,0.814062,
2011-02-05, 00:06:04,VALID,1003.14,VALID,0,INVALID,161,VALID,0,VALID,25.0255,VALID,31,VALID,0.81875,
2011-02-05, 00:07:04,VALID,1003.12,VALID,0,INVALID,129.409,VALID,0.100563,VALID,25.1423,VALID,10,VALID,1.22266,
2011-02-05, 00:08:04,VALID,1003.1,VALID,0,INVALID,110.352,VALID,0,VALID,25.3,VALID,10,VALID,0.986328,
2011-02-05, 00:09:04,VALID,1003.12,VALID,0,VALID,104,VALID,0,VALID,25.4149,VALID,26,VALID,1.33789,
2011-02-05, 00:10:04,VALID,1003.09,VALID,0,VALID,101.586,VALID,0.100563,VALID,25.4928,VALID,44,VALID,0.648047,
2011-02-05, 00:11:04,VALID,1003.06,VALID,0,VALID,100.678,VALID,0,VALID,25.5142,VALID,29,VALID,0.507031,
2011-02-05, 00:12:04,VALID,1003.02,VALID,0,VALID,100.053,VALID,0,VALID,25.5357,VALID,27,VALID,0.933984,
2011-02-05, 00:13:04,VALID,1003,VALID,0,VALID,100.488,VALID,0,VALID,25.5142,VALID,34,VALID,0.842188,
2011-02-05, 00:14:04,VALID,1002.98,VALID,0,VALID,98.9924,VALID,0,VALID,25.5746,VALID,9,VALID,1.26406,
2011-02-05, 00:15:04,VALID,1002.94,VALID,0,VALID,98.6872,VALID,0,VALID,25.5921,VALID,27,VALID,0.938672,
2011-02-05, 00:16:04,VALID,1002.95,VALID,0,VALID,97.4818,VALID,0,VALID,25.6895,VALID,14,VALID,1.65977,
2011-02-05, 00:17:04,VALID,1002.94,VALID,0,VALID,97.6344,VALID,0,VALID,25.7109,VALID,25,VALID,0.766406,
2011-02-05, 00:18:04,VALID,1002.92,VALID,0,VALID,97.0775,VALID,0,VALID,25.67,VALID,28,VALID,1.40937,
2011-02-05, 00:19:04,VALID,1002.91,VALID,0,VALID,96.7113,VALID,0,VALID,25.748,VALID,73,VALID,0.58125,
2011-02-05, 00:20:04,VALID,1002.92,VALID,0,VALID,96.4672,VALID,0,VALID,25.7499,VALID,25,VALID,1.32305,
2011-02-05, 00:21:04,VALID,1002.92,VALID,0,VALID,96.1163,VALID,0,VALID,25.748,VALID,1,VALID,0.742578,
2011-02-05, 00:22:04,VALID,1002.91,VALID,0,VALID,96.6121,VALID,0,VALID,25.748,VALID,13,VALID,0.737891,
2011-02-05, 00:23:04,VALID,1002.87,VALID,0,VALID,95.6204,VALID,0,VALID,25.748,VALID,17,VALID,2.06914,
2011-02-05, 00:24:04,VALID,1002.9,VALID,0,VALID,95.1474,VALID,0,VALID,25.8453,VALID,19,VALID,1.07266,
2011-02-05, 00:25:04,VALID,1002.9,VALID,0,VALID,94.7125,VALID,0,VALID,25.8453,VALID,24,VALID,0.684766,
2011-02-05, 00:26:04,VALID,1002.88,VALID,0,VALID,95.0635,VALID,0,VALID,25.8239,VALID,12,VALID,0.557031,
2011-02-05, 00:27:04,VALID,1002.87,VALID,0,VALID,95.2313,VALID,0,VALID,25.8434,VALID,32,VALID,1.06367,
2011-02-05, 00:28:04,VALID,1002.89,VALID,0,VALID,95.5365,VALID,0,VALID,25.8239,VALID,44,VALID,0.523438,
2011-02-05, 00:29:04,VALID,1002.91,VALID,0,VALID,95.9866,VALID,0,VALID,25.8064,VALID,60,VALID,0.584375,
2011-02-05, 00:30:04,VALID,1002.87,VALID,0,VALID,95.8187,VALID,0,VALID,25.8239,VALID,90,VALID,1.32617,
2011-02-05, 00:31:04,VALID,1002.93,VALID,0,VALID,95.6204,VALID,0,VALID,25.8843,VALID,43,VALID,0.603125,
2011-02-05, 00:32:04,VALID,1002.91,VALID,0,VALID,95.6738,VALID,0,VALID,25.8629,VALID,72,VALID,0.287891,
2011-02-05, 00:33:04,VALID,1002.91,VALID,0,VALID,95.4602,VALID,0,VALID,25.7655,VALID,139,VALID,0.799219,
2011-02-05, 00:34:04,VALID,1002.89,VALID,0,VALID,96.7113,VALID,0,VALID,25.7285,VALID,155,VALID,0.617188,
2011-02-05, 00:35:04,VALID,1002.9,VALID,0,VALID,97.5581,VALID,0,VALID,25.6876,VALID,161,VALID,0.24375,
2011-02-05, 00:36:04,VALID,1002.89,VALID,0,VALID,98.382,VALID,0.100563,VALID,25.6311,VALID,161,VALID,0.416797,
2011-02-05, 00:37:04,VALID,1002.87,VALID,0,VALID,98.7101,VALID,0,VALID,25.4948,VALID,161,VALID,0.270703,
2011-02-05, 00:38:04,VALID,1002.89,VALID,0,VALID,100.823,VALID,0,VALID,25.3565,VALID,161,VALID,0.329688,
2011-02-05, 00:39:04,VALID,1002.86,VALID,0,VALID,104,VALID,0,VALID,25.3195,VALID,150,VALID,0.620313,
2011-02-05, 00:40:04,VALID,1002.88,VALID,0,INVALID,109.696,VALID,0,VALID,25.2806,VALID,128,VALID,0.195313,
2011-02-05, 00:41:04,VALID,1002.88,VALID,0,INVALID,111.656,VALID,0,VALID,25.1832,VALID,71,VALID,0.494922,
2011-02-05, 00:42:04,VALID,1002.89,VALID,0,INVALID,124.778,VALID,0,VALID,24.9885,VALID,64,VALID,0.601563,
2011-02-05, 00:43:04,VALID,1002.91,VALID,0,INVALID,163.586,VALID,0,VALID,24.8716,VALID,66,VALID,0.188281,
2011-02-05, 00:44:04,VALID,1002.87,VALID,0,INVALID,163.624,VALID,0,VALID,24.7937,VALID,66,VALID,0.453906,
2011-02-05, 00:45:04,VALID,1002.83,VALID,0,INVALID,163.617,VALID,0,VALID,24.6964,VALID,121,VALID,0.713281,
2011-02-05, 00:46:04,VALID,1002.85,VALID,0,INVALID,163.685,VALID,0,VALID,24.6185,VALID,58,VALID,0.616016,
2011-02-05, 00:47:04,VALID,1002.88,VALID,0,INVALID,163.662,VALID,0,VALID,24.5193,VALID,18,VALID,0.253516,
2011-02-05, 00:48:04,VALID,1002.87,VALID,0,INVALID,163.678,VALID,0,VALID,24.4414,VALID,18,VALID,0.24375,
2011-02-05, 00:49:04,VALID,1002.87,VALID,0,INVALID,163.701,VALID,0,VALID,24.383,VALID,18,VALID,0.244141,
2011-02-05, 00:50:04,VALID,1002.85,VALID,0,INVALID,163.693,VALID,0,VALID,24.3654,VALID,18,VALID,0.159766,
2011-02-05, 00:51:04,VALID,1002.87,VALID,0,INVALID,163.655,VALID,0,VALID,24.3265,VALID,18,VALID,0.19375,
2011-02-05, 00:52:04,VALID,1002.88,VALID,0,INVALID,163.678,VALID,0,VALID,24.307,VALID,18,VALID,0.304688,
2011-02-05, 00:53:04,VALID,1002.85,VALID,0,INVALID,163.701,VALID,0,VALID,24.2468,VALID,14,VALID,0.50625,
2011-02-05, 00:54:04,VALID,1002.84,VALID,0,INVALID,163.708,VALID,0,VALID,24.2681,VALID,14,VALID,0.152344,
2011-02-05, 00:55:04,VALID,1002.85,VALID,0,INVALID,163.685,VALID,0,VALID,24.2291,VALID,14,VALID,0.192969,
2011-02-05, 00:56:04,VALID,1002.86,VALID,0,INVALID,163.662,VALID,0,VALID,24.1902,VALID,14,VALID,0.358594,
2011-02-05, 00:57:04,VALID,1002.83,VALID,0,INVALID,163.708,VALID,0,VALID,24.1707,VALID,12,VALID,0.628906,
2011-02-05, 00:58:04,VALID,1002.82,VALID,0,INVALID,163.708,VALID,0,VALID,24.1689,VALID,354,VALID,0.501953,
2011-02-05, 00:59:04,VALID,1002.82,VALID,0,INVALID,163.701,VALID,0,VALID,24.1902,VALID,354,VALID,0.179297,
2011-02-05, 01:00:04,VALID,1002.79,VALID,0,INVALID,163.693,VALID,0,VALID,24.1707,VALID,354,VALID,0.294922,
2011-02-05, 01:01:04,VALID,1002.77,VALID,0,INVALID,163.716,VALID,0,VALID,24.1513,VALID,354,VALID,0.460547,
2011-02-05, 01:02:04,VALID,1002.77,VALID,0,INVALID,163.693,VALID,0,VALID,24.1105,VALID,357,VALID,0.370703,
2011-02-05, 01:03:04,VALID,1002.77,VALID,0,INVALID,163.723,VALID,0,VALID,24.1318,VALID,330,VALID,0.387891,
2011-02-05, 01:04:04,VALID,1002.75,VALID,0,INVALID,163.678,VALID,0,VALID,24.1513,VALID,330,VALID,0.272266,
2011-02-05, 01:05:04,VALID,1002.77,VALID,0,INVALID,163.685,VALID,0,VALID,24.1318,VALID,330,VALID,0.450391,
2011-02-05, 01:06:04,VALID,1002.73,VALID,0,INVALID,163.708,VALID,0,VALID,24.0308,VALID,11,VALID,0.271484,
2011-02-05, 01:07:04,VALID,1002.74,VALID,0,INVALID,163.716,VALID,0,VALID,24.0114,VALID,11,VALID,0.204688,
2011-02-05, 01:08:04,VALID,1002.71,VALID,0,INVALID,163.716,VALID,0,VALID,23.9937,VALID,11,VALID,0.139453,
2011-02-05, 01:09:04,VALID,1002.72,VALID,0,INVALID,163.754,VALID,0,VALID,23.9937,VALID,5,VALID,0.299219,
2011-02-05, 01:10:04,VALID,1002.74,VALID,0,INVALID,163.693,VALID,0,VALID,23.9742,VALID,7,VALID,0.3125,
2011-02-05, 01:11:04,VALID,1002.73,VALID,0,INVALID,163.739,VALID,0,VALID,23.9566,VALID,7,VALID,0.277344,
2011-02-05, 01:12:04,VALID,1002.73,VALID,0,INVALID,163.739,VALID,0,VALID,23.9159,VALID,7,VALID,0.329688,
2011-02-05, 01:13:04,VALID,1002.71,VALID,0,INVALID,163.723,VALID,0,VALID,23.8787,VALID,7,VALID,0.208984,
2011-02-05, 01:14:04,VALID,1002.74,VALID,0,INVALID,163.731,VALID,0,VALID,23.838,VALID,7,VALID,0,
2011-02-05, 01:15:04,VALID,1002.72,VALID,0,INVALID,163.723,VALID,0,VALID,23.838,VALID,7,VALID,0.0046875,
2011-02-05, 01:16:04,VALID,1002.7,VALID,0,INVALID,163.716,VALID,0,VALID,23.8185,VALID,7,VALID,0.506641,
2011-02-05, 01:17:04,VALID,1002.66,VALID,0,INVALID,163.739,VALID,0,VALID,23.8398,VALID,357,VALID,0.532422,
2011-02-05, 01:18:04,VALID,1002.67,VALID,0,INVALID,163.723,VALID,0,VALID,23.8398,VALID,298,VALID,0.637109,
2011-02-05, 01:19:04,VALID,1002.65,VALID,0,INVALID,163.716,VALID,0,VALID,23.8185,VALID,298,VALID,0.198437,
2011-02-05, 01:20:04,VALID,1002.66,VALID,0,INVALID,163.716,VALID,0,VALID,23.7991,VALID,298,VALID,0.298828,
2011-02-05, 01:21:04,VALID,1002.63,VALID,0,INVALID,163.746,VALID,0,VALID,23.8203,VALID,298,VALID,0,
2011-02-05, 01:22:04,VALID,1002.63,VALID,0,INVALID,163.716,VALID,0,VALID,23.7796,VALID,298,VALID,0.0339844,
2011-02-05, 01:23:04,VALID,1002.63,VALID,0,INVALID,163.701,VALID,0,VALID,23.7601,VALID,298,VALID,0.101172,
2011-02-05, 01:24:04,VALID,1002.64,VALID,0,INVALID,163.731,VALID,0,VALID,23.7601,VALID,298,VALID,0.257422,
2011-02-05, 01:25:04,VALID,1002.65,VALID,0,INVALID,163.762,VALID,0,VALID,23.7814,VALID,298,VALID,0.124219,
2011-02-05, 01:26:04,VALID,1002.65,VALID,0,INVALID,163.731,VALID,0,VALID,23.7814,VALID,298,VALID,0.180078,
2011-02-05, 01:27:04,VALID,1002.64,VALID,0,INVALID,163.746,VALID,0,VALID,23.7619,VALID,298,VALID,0,
2011-02-05, 01:28:04,VALID,1002.62,VALID,0,INVALID,163.723,VALID,0,VALID,23.7601,VALID,298,VALID,0,
2011-02-05, 01:29:04,VALID,1002.59,VALID,0,INVALID,163.739,VALID,0,VALID,23.7194,VALID,298,VALID,0,
2011-02-05, 01:30:04,VALID,1002.57,VALID,0,INVALID,163.731,VALID,0,VALID,23.7212,VALID,298,VALID,0,
2011-02-05, 01:31:04,VALID,1002.57,VALID,0,INVALID,163.731,VALID,0,VALID,23.7017,VALID,298,VALID,0,
2011-02-05, 01:32:04,VALID,1002.58,VALID,0,INVALID,163.723,VALID,0.100563,VALID,23.6823,VALID,298,VALID,0,
2011-02-05, 01:33:04,VALID,1002.54,VALID,0,INVALID,163.739,VALID,0,VALID,23.6841,VALID,298,VALID,0,
2011-02-05, 01:34:04,VALID,1002.54,VALID,0,INVALID,163.723,VALID,0.100563,VALID,23.6221,VALID,298,VALID,0,
2011-02-05, 01:35:04,VALID,1002.53,VALID,0,INVALID,163.746,VALID,0,VALID,23.6257,VALID,298,VALID,0,
2011-02-05, 01:36:04,VALID,1002.53,VALID,0,INVALID,163.762,VALID,0,VALID,23.5868,VALID,298,VALID,0,
2011-02-05, 01:37:04,VALID,1002.53,VALID,0,INVALID,163.754,VALID,0,VALID,23.5655,VALID,298,VALID,0,
2011-02-05, 01:38:04,VALID,1002.48,VALID,0,INVALID,163.754,VALID,0,VALID,23.546,VALID,298,VALID,0,
2011-02-05, 01:39:04,VALID,1002.49,VALID,0,INVALID,163.754,VALID,0,VALID,23.5266,VALID,298,VALID,0,
2011-02-05, 01:40:04,VALID,1002.5,VALID,0,INVALID,163.739,VALID,0.100563,VALID,23.5071,VALID,298,VALID,0,
2011-02-05, 01:41:04,VALID,1002.47,VALID,0,INVALID,163.746,VALID,0,VALID,23.5089,VALID,298,VALID,0,
2011-02-05, 01:42:04,VALID,1002.47,VALID,0,INVALID,163.769,VALID,0,VALID,23.5089,VALID,298,VALID,0,
2011-02-05, 01:43:04,VALID,1002.46,VALID,0,INVALID,163.739,VALID,0,VALID,23.4877,VALID,298,VALID,0.347266,
2011-02-05, 01:44:04,VALID,1002.45,VALID,0,INVALID,163.769,VALID,0,VALID,23.4894,VALID,298,VALID,0.301953,
2011-02-05, 01:45:04,VALID,1002.45,VALID,0,INVALID,163.754,VALID,0,VALID,23.4487,VALID,298,VALID,0.363281,
2011-02-05, 01:46:04,VALID,1002.44,VALID,0,INVALID,163.739,VALID,0,VALID,23.47,VALID,298,VALID,0.250391,
2011-02-05, 01:47:04,VALID,1002.45,VALID,0,INVALID,163.754,VALID,0,VALID,23.4505,VALID,298,VALID,0.148828,
2011-02-05, 01:48:04,VALID,1002.44,VALID,0,INVALID,163.746,VALID,0,VALID,23.47,VALID,298,VALID,0.259766,
2011-02-05, 01:49:04,VALID,1002.4,VALID,0,INVALID,163.746,VALID,0,VALID,23.47,VALID,298,VALID,0.212891,
2011-02-05, 01:50:04,VALID,1002.4,VALID,0,INVALID,163.762,VALID,0,VALID,23.47,VALID,298,VALID,0.215625,
2011-02-05, 01:51:04,VALID,1002.41,VALID,0,INVALID,163.754,VALID,0,VALID,23.5107,VALID,298,VALID,0.153906,
2011-02-05, 01:52:04,VALID,1002.41,VALID,0,INVALID,163.762,VALID,0,VALID,23.5089,VALID,298,VALID,0.237109,
2011-02-05, 01:53:04,VALID,1002.39,VALID,0,INVALID,163.762,VALID,0,VALID,23.5284,VALID,298,VALID,0.296094,
2011-02-05, 01:54:04,VALID,1002.37,VALID,0,INVALID,163.746,VALID,0,VALID,23.5266,VALID,298,VALID,0.278906,
2011-02-05, 01:55:04,VALID,1002.33,VALID,0,INVALID,163.739,VALID,0,VALID,23.5284,VALID,298,VALID,0.378125,
2011-02-05, 01:56:04,VALID,1002.34,VALID,0,INVALID,163.754,VALID,0,VALID,23.5089,VALID,298,VALID,0.415234,
2011-02-05, 01:57:04,VALID,1002.3,VALID,0,INVALID,163.739,VALID,0,VALID,23.5284,VALID,298,VALID,0.351563,
2011-02-05, 01:58:04,VALID,1002.28,VALID,0,INVALID,163.731,VALID,0,VALID,23.5284,VALID,298,VALID,0.395703,
2011-02-05, 01:59:04,VALID,1002.27,VALID,0,INVALID,163.746,VALID,0,VALID,23.5266,VALID,298,VALID,0.267188,
2011-02-05, 02:00:04,VALID,1002.26,VALID,0,INVALID,163.746,VALID,0,VALID,23.5284,VALID,298,VALID,0.317578,
2011-02-05, 02:01:04,VALID,1002.28,VALID,0,INVALID,163.731,VALID,0,VALID,23.5302,VALID,298,VALID,0.167969,
2011-02-05, 02:02:04,VALID,1002.28,VALID,0,INVALID,163.762,VALID,0,VALID,23.4894,VALID,298,VALID,0.190234,
2011-02-05, 02:03:04,VALID,1002.28,VALID,0,INVALID,163.769,VALID,0,VALID,23.4894,VALID,298,VALID,0,
2011-02-05, 02:04:04,VALID,1002.28,VALID,0,INVALID,163.739,VALID,0,VALID,23.4487,VALID,298,VALID,0.0433594,
2011-02-05, 02:05:04,VALID,1002.27,VALID,0,INVALID,163.723,VALID,0,VALID,23.4505,VALID,298,VALID,0.137109,
2011-02-05, 02:06:04,VALID,1002.26,VALID,0,INVALID,163.762,VALID,0,VALID,23.47,VALID,298,VALID,0,
2011-02-05, 02:07:04,VALID,1002.3,VALID,0,INVALID,163.746,VALID,0,VALID,23.4098,VALID,298,VALID,0,
2011-02-05, 02:08:04,VALID,1002.28,VALID,0,INVALID,163.754,VALID,0,VALID,23.4098,VALID,298,VALID,0,
2011-02-05, 02:09:04,VALID,1002.28,VALID,0,INVALID,163.746,VALID,0,VALID,23.4311,VALID,298,VALID,0,
2011-02-05, 02:10:04,VALID,1002.26,VALID,0,INVALID,163.731,VALID,0,VALID,23.4293,VALID,298,VALID,0.416016,
2011-02-05, 02:11:04,VALID,1002.26,VALID,0,INVALID,163.731,VALID,0,VALID,23.4311,VALID,298,VALID,0.33125,
2011-02-05, 02:12:04,VALID,1002.26,VALID,0,INVALID,163.784,VALID,0,VALID,23.3727,VALID,298,VALID,0.186328,
2011-02-05, 02:13:04,VALID,1002.25,VALID,0,INVALID,163.777,VALID,0,VALID,23.355,VALID,298,VALID,0.335547,
2011-02-05, 02:14:04,VALID,1002.25,VALID,0,INVALID,163.777,VALID,0,VALID,23.3125,VALID,298,VALID,0.45625,
2011-02-05, 02:15:04,VALID,1002.22,VALID,0,INVALID,163.762,VALID,0,VALID,23.3143,VALID,298,VALID,0.211719,
2011-02-05, 02:16:04,VALID,1002.24,VALID,0,INVALID,163.784,VALID,0,VALID,23.3125,VALID,298,VALID,0.433203,
2011-02-05, 02:17:04,VALID,1002.24,VALID,0,INVALID,163.769,VALID,0,VALID,23.3337,VALID,298,VALID,0.363281,
2011-02-05, 02:18:04,VALID,1002.26,VALID,0,INVALID,163.769,VALID,0,VALID,23.3337,VALID,298,VALID,0.0972656,
2011-02-05, 02:19:04,VALID,1002.26,VALID,0,INVALID,163.769,VALID,0,VALID,23.2931,VALID,298,VALID,0.0566406,
2011-02-05, 02:20:04,VALID,1002.24,VALID,0,INVALID,163.746,VALID,0,VALID,23.2736,VALID,298,VALID,0.396484,
2011-02-05, 02:21:04,VALID,1002.26,VALID,0,INVALID,163.784,VALID,0,VALID,23.2931,VALID,298,VALID,0.432813,
2011-02-05, 02:22:04,VALID,1002.22,VALID,0,INVALID,163.777,VALID,0,VALID,23.2754,VALID,298,VALID,0.441797,
2011-02-05, 02:23:04,VALID,1002.22,VALID,0,INVALID,163.769,VALID,0,VALID,23.2948,VALID,298,VALID,0.358203,
2011-02-05, 02:24:04,VALID,1002.21,VALID,0,INVALID,163.762,VALID,0,VALID,23.2754,VALID,298,VALID,0.348437,
2011-02-05, 02:25:04,VALID,1002.21,VALID,0,INVALID,163.762,VALID,0,VALID,23.2541,VALID,298,VALID,0.388672,
2011-02-05, 02:26:04,VALID,1002.22,VALID,0,INVALID,163.769,VALID,0,VALID,23.2364,VALID,298,VALID,0.277734,
2011-02-05, 02:27:04,VALID,1002.21,VALID,0,INVALID,163.769,VALID,0,VALID,23.2347,VALID,298,VALID,0.2125,
2011-02-05, 02:28:04,VALID,1002.2,VALID,0,INVALID,163.769,VALID,0,VALID,23.2736,VALID,298,VALID,0.332422,
2011-02-05, 02:29:04,VALID,1002.22,VALID,0,INVALID,163.762,VALID,0,VALID,23.2541,VALID,298,VALID,0.230469,
2011-02-05, 02:30:04,VALID,1002.19,VALID,0,INVALID,163.769,VALID,0,VALID,23.2347,VALID,298,VALID,0.221875,
2011-02-05, 02:31:04,VALID,1002.21,VALID,0,INVALID,163.769,VALID,0,VALID,23.2364,VALID,298,VALID,0.316797,
2011-02-05, 02:32:04,VALID,1002.22,VALID,0,INVALID,163.777,VALID,0,VALID,23.2152,VALID,298,VALID,0.196875,
2011-02-05, 02:33:04,VALID,1002.22,VALID,0,INVALID,163.784,VALID,0,VALID,23.2152,VALID,298,VALID,0.0421875,
2011-02-05, 02:34:04,VALID,1002.21,VALID,0,INVALID,163.754,VALID,0,VALID,23.2152,VALID,298,VALID,0,
2011-02-05, 02:35:04,VALID,1002.21,VALID,0,INVALID,163.769,VALID,0,VALID,23.2152,VALID,298,VALID,0.359375,
2011-02-05, 02:36:04,VALID,1002.23,VALID,0,INVALID,163.8,VALID,0,VALID,23.1957,VALID,298,VALID,0.344922,
2011-02-05, 02:37:04,VALID,1002.22,VALID,0,INVALID,163.8,VALID,0,VALID,23.1763,VALID,298,VALID,0.315625,
2011-02-05, 02:38:04,VALID,1002.23,VALID,0,INVALID,163.762,VALID,0,VALID,23.1586,VALID,298,VALID,0.224219,
2011-02-05, 02:39:04,VALID,1002.24,VALID,0,INVALID,163.777,VALID,0,VALID,23.1179,VALID,298,VALID,0.123828,
2011-02-05, 02:40:04,VALID,1002.24,VALID,0,INVALID,163.746,VALID,0,VALID,23.1179,VALID,298,VALID,0.0046875,
2011-02-05, 02:41:04,VALID,1002.24,VALID,0,INVALID,163.762,VALID,0,VALID,23.1586,VALID,298,VALID,0.178906,
2011-02-05, 02:42:04,VALID,1002.24,VALID,0,INVALID,163.777,VALID,0,VALID,23.1374,VALID,298,VALID,0.0992187,
2011-02-05, 02:43:04,VALID,1002.24,VALID,0,INVALID,163.769,VALID,0,VALID,23.1763,VALID,298,VALID,0.251953,
2011-02-05, 02:44:04,VALID,1002.26,VALID,0,INVALID,163.807,VALID,0,VALID,23.2152,VALID,298,VALID,0.329688,
2011-02-05, 02:45:04,VALID,1002.26,VALID,0,INVALID,163.777,VALID,0,VALID,23.1957,VALID,298,VALID,0.347266,
2011-02-05, 02:46:04,VALID,1002.28,VALID,0,INVALID,163.792,VALID,0,VALID,23.2364,VALID,308,VALID,0.503906,
2011-02-05, 02:47:04,VALID,1002.27,VALID,0,INVALID,163.792,VALID,0,VALID,23.1957,VALID,341,VALID,0.410937,
2011-02-05, 02:48:04,VALID,1002.26,VALID,0,INVALID,163.777,VALID,0,VALID,23.1763,VALID,341,VALID,0.560156,
2011-02-05, 02:49:04,VALID,1002.27,VALID,0,INVALID,163.769,VALID,0,VALID,23.1568,VALID,341,VALID,0.593359,
2011-02-05, 02:50:04,VALID,1002.24,VALID,0,INVALID,163.784,VALID,0,VALID,23.1374,VALID,342,VALID,0.623438,
2011-02-05, 02:51:04,VALID,1002.22,VALID,0,INVALID,163.815,VALID,0,VALID,23.1179,VALID,342,VALID,0.447656,
2011-02-05, 02:52:04,VALID,1002.25,VALID,0,INVALID,163.784,VALID,0,VALID,23.1391,VALID,342,VALID,0.336719,
2011-02-05, 02:53:04,VALID,1002.22,VALID,0,INVALID,163.784,VALID,0,VALID,23.0984,VALID,342,VALID,0.31875,
2011-02-05, 02:54:04,VALID,1002.25,VALID,0,INVALID,163.784,VALID,0,VALID,23.1391,VALID,342,VALID,0.398047,
2011-02-05, 02:55:04,VALID,1002.23,VALID,0,INVALID,163.777,VALID,0,VALID,23.1197,VALID,342,VALID,0.274609,
2011-02-05, 02:56:04,VALID,1002.23,VALID,0,INVALID,163.792,VALID,0,VALID,23.0984,VALID,342,VALID,0.173828,
2011-02-05, 02:57:04,VALID,1002.24,VALID,0,INVALID,163.784,VALID,0,VALID,23.0984,VALID,342,VALID,0,
2011-02-05, 02:58:04,VALID,1002.23,VALID,0,INVALID,163.792,VALID,0,VALID,23.1586,VALID,342,VALID,0.170703,
2011-02-05, 02:59:04,VALID,1002.25,VALID,0,INVALID,163.754,VALID,0,VALID,23.1391,VALID,342,VALID,0.242188,
2011-02-05, 03:00:04,VALID,1002.24,VALID,0,INVALID,163.769,VALID,0,VALID,23.1197,VALID,342,VALID,0.315234,
2011-02-05, 03:01:04,VALID,1002.24,VALID,0,INVALID,163.769,VALID,0,VALID,23.1391,VALID,342,VALID,0.378906,
2011-02-05, 03:02:04,VALID,1002.25,VALID,0,INVALID,163.777,VALID,0,VALID,23.1586,VALID,342,VALID,0.323047,
2011-02-05, 03:03:04,VALID,1002.25,VALID,0,INVALID,163.8,VALID,0,VALID,23.1197,VALID,342,VALID,0.444531,
2011-02-05, 03:04:04,VALID,1002.31,VALID,0,INVALID,163.792,VALID,0,VALID,23.1002,VALID,349,VALID,0.442187,
2011-02-05, 03:05:04,VALID,1002.28,VALID,0,INVALID,163.784,VALID,0,VALID,23.1586,VALID,350,VALID,0.555078,
2011-02-05, 03:06:04,VALID,1002.28,VALID,0,INVALID,163.762,VALID,0,VALID,23.2364,VALID,353,VALID,0.753906,
2011-02-05, 03:07:04,VALID,1002.28,VALID,0,INVALID,163.762,VALID,0,VALID,23.2754,VALID,348,VALID,1.2957,
2011-02-05, 03:08:04,VALID,1002.26,VALID,0,INVALID,163.769,VALID,0,VALID,23.2948,VALID,344,VALID,0.787109,
2011-02-05, 03:09:04,VALID,1002.26,VALID,0,INVALID,163.762,VALID,0,VALID,23.2754,VALID,353,VALID,0.54375,
2011-02-05, 03:10:04,VALID,1002.29,VALID,0,INVALID,163.762,VALID,0,VALID,23.2559,VALID,333,VALID,0.326953,
2011-02-05, 03:11:04,VALID,1002.27,VALID,0,INVALID,163.769,VALID,0,VALID,23.2559,VALID,337,VALID,0.568359,
2011-02-05, 03:12:04,VALID,1002.25,VALID,0,INVALID,163.784,VALID,0,VALID,23.2559,VALID,339,VALID,0.141406,
2011-02-05, 03:13:04,VALID,1002.26,VALID,0,INVALID,163.777,VALID,0,VALID,23.2559,VALID,339,VALID,0.0777344,
2011-02-05, 03:14:04,VALID,1002.27,VALID,0,INVALID,163.754,VALID,0,VALID,23.2559,VALID,339,VALID,0.189453,
2011-02-05, 03:15:04,VALID,1002.27,VALID,0,INVALID,163.762,VALID,0,VALID,23.2347,VALID,338,VALID,0.433203,
2011-02-05, 03:16:04,VALID,1002.3,VALID,0,INVALID,163.769,VALID,0,VALID,23.2559,VALID,338,VALID,0,
2011-02-05, 03:17:04,VALID,1002.29,VALID,0,INVALID,163.762,VALID,0,VALID,23.2347,VALID,339,VALID,0,
2011-02-05, 03:18:04,VALID,1002.3,VALID,0,INVALID,163.762,VALID,0,VALID,23.2559,VALID,341,VALID,0.00117188,
2011-02-05, 03:19:04,VALID,1002.29,VALID,0,INVALID,163.777,VALID,0,VALID,23.2559,VALID,342,VALID,0.0183594,
2011-02-05, 03:20:04,VALID,1002.29,VALID,0,INVALID,163.769,VALID,0,VALID,23.2541,VALID,342,VALID,0.0601562,
2011-02-05, 03:21:04,VALID,1002.32,VALID,0,INVALID,163.777,VALID,0,VALID,23.2948,VALID,342,VALID,0.107813,
2011-02-05, 03:22:04,VALID,1002.31,VALID,0,INVALID,163.746,VALID,0,VALID,23.3355,VALID,342,VALID,0.021875,
2011-02-05, 03:23:04,VALID,1002.32,VALID,0,INVALID,163.746,VALID,0,VALID,23.332,VALID,342,VALID,0,
2011-02-05, 03:24:04,VALID,1002.32,VALID,0,INVALID,163.754,VALID,0,VALID,23.3921,VALID,342,VALID,0,
2011-02-05, 03:25:04,VALID,1002.29,VALID,0,INVALID,163.762,VALID,0,VALID,23.4116,VALID,342,VALID,0,
2011-02-05, 03:26:04,VALID,1002.33,VALID,0,INVALID,163.739,VALID,0,VALID,23.4311,VALID,342,VALID,0.349609,
2011-02-05, 03:27:04,VALID,1002.3,VALID,0,INVALID,163.746,VALID,0,VALID,23.3921,VALID,343,VALID,0.393359,
2011-02-05, 03:28:04,VALID,1002.32,VALID,0,INVALID,163.731,VALID,0,VALID,23.3727,VALID,343,VALID,0.261719,
2011-02-05, 03:29:04,VALID,1002.33,VALID,0,INVALID,163.762,VALID,0,VALID,23.3514,VALID,343,VALID,0.368359,
2011-02-05, 03:30:04,VALID,1002.31,VALID,0,INVALID,163.739,VALID,0,VALID,23.3337,VALID,343,VALID,0.480859,
2011-02-05, 03:31:04,VALID,1002.32,VALID,0,INVALID,163.769,VALID,0,VALID,23.3143,VALID,343,VALID,0.508203,
2011-02-05, 03:32:04,VALID,1002.35,VALID,0,INVALID,163.762,VALID,0,VALID,23.3355,VALID,344,VALID,0.258203,
2011-02-05, 03:33:04,VALID,1002.34,VALID,0,INVALID,163.731,VALID,0,VALID,23.3532,VALID,344,VALID,0.116406,
2011-02-05, 03:34:04,VALID,1002.35,VALID,0,INVALID,163.754,VALID,0,VALID,23.3337,VALID,344,VALID,0.147656,
2011-02-05, 03:35:04,VALID,1002.33,VALID,0,INVALID,163.746,VALID,0,VALID,23.332,VALID,344,VALID,0.0515625,
2011-02-05, 03:36:04,VALID,1002.33,VALID,0,INVALID,163.746,VALID,0,VALID,23.3921,VALID,342,VALID,0.455469,
2011-02-05, 03:37:04,VALID,1002.34,VALID,0,INVALID,163.769,VALID,0,VALID,23.4098,VALID,342,VALID,0.459375,
2011-02-05, 03:38:04,VALID,1002.32,VALID,0,INVALID,163.762,VALID,0,VALID,23.5496,VALID,343,VALID,0.614062,
2011-02-05, 03:39:04,VALID,1002.29,VALID,0,INVALID,163.731,VALID,0,VALID,23.5673,VALID,343,VALID,0.380469,
2011-02-05, 03:40:04,VALID,1002.31,VALID,0,INVALID,163.769,VALID,0,VALID,23.5673,VALID,343,VALID,0.288281,
2011-02-05, 03:41:04,VALID,1002.31,VALID,0,INVALID,163.754,VALID,0,VALID,23.5868,VALID,343,VALID,0.142969,
2011-02-05, 03:42:04,VALID,1002.32,VALID,0,INVALID,163.739,VALID,0,VALID,23.585,VALID,343,VALID,0,